Time,TemperatureF,DewpointF,PressureIn,WindDirection,WindDirectionDegrees,WindSpeedMPH,WindSpeedGustMPH,Humidity,HourlyPrecipIn,Conditions,Clouds,dailyrainin,SoftwareType,DateUTC
2013-01-21 00:04:00,37.0,30.0,30.13,WNW,295,0.0,0.0,77,0.00,,,0.00,,2013-01-21 05:04:00,
2013-01-21 00:12:00,37.0,30.0,30.13,WNW,295,0.0,0.0,77,0.00,,,0.00,,2013-01-21 05:12:00,
2013-01-21 00:22:00,36.0,30.0,30.13,WNW,295,0.0,0.0,79,0.00,,,0.00,,2013-01-21 05:22:00,
2013-01-21 00:34:00,35.0,30.0,30.13,WNW,295,0.0,0.0,81,0.00,,,0.00,,2013-01-21 05:34:00,
2013-01-21 00:42:00,35.0,30.0,30.13,WNW,295,0.0,0.0,81,0.00,,,0.00,,2013-01-21 05:42:00,
2013-01-21 00:53:00,35.0,30.0,30.13,WNW,295,0.0,0.0,82,0.00,,,0.00,,2013-01-21 05:53:00,
2013-01-21 01:03:00,34.0,29.0,30.13,WNW,295,0.0,0.0,83,0.00,,,0.00,,2013-01-21 06:03:00,
2013-01-21 01:13:00,34.0,29.0,30.13,WNW,295,0.0,0.0,83,0.00,,,0.00,,2013-01-21 06:13:00,
2013-01-21 01:23:00,34.0,29.0,30.12,WNW,295,0.0,0.0,83,0.00,,,0.00,,2013-01-21 06:23:00,
2013-01-21 01:33:00,33.0,29.0,30.11,WNW,295,0.0,0.0,85,0.00,,,0.00,,2013-01-21 06:33:00,
2013-01-21 01:43:00,33.0,29.0,30.11,WNW,295,0.0,0.0,85,0.00,,,0.00,,2013-01-21 06:43:00,
2013-01-21 01:53:00,33.0,29.0,30.11,WNW,295,0.0,0.0,84,0.00,,,0.00,,2013-01-21 06:53:00,
2013-01-21 02:03:00,34.0,29.0,30.11,WNW,295,0.0,0.0,81,0.00,,,0.00,,2013-01-21 07:03:00,
2013-01-21 02:13:00,34.0,29.0,30.11,WNW,295,0.0,0.0,81,0.00,,,0.00,,2013-01-21 07:13:00,
2013-01-21 02:23:00,33.0,29.0,30.11,WNW,295,0.0,0.0,84,0.00,,,0.00,,2013-01-21 07:23:00,
2013-01-21 02:33:00,32.0,28.0,30.12,WNW,295,0.0,0.0,85,0.00,,,0.00,,2013-01-21 07:33:00,
2013-01-21 02:42:00,32.0,28.0,30.12,WNW,295,0.0,0.0,85,0.00,,,0.00,,2013-01-21 07:42:00,
2013-01-21 02:53:00,32.0,29.0,30.11,WNW,295,0.0,0.0,87,0.00,,,0.00,,2013-01-21 07:53:00,
2013-01-21 03:03:00,32.0,29.0,30.11,WNW,295,0.0,0.0,87,0.00,,,0.00,,2013-01-21 08:03:00,
2013-01-21 03:14:00,32.0,29.0,30.11,WNW,295,0.0,0.0,87,0.00,,,0.00,,2013-01-21 08:14:00,
2013-01-21 03:23:00,31.0,28.0,30.11,WNW,295,0.0,0.0,87,0.00,,,0.00,,2013-01-21 08:23:00,
2013-01-21 03:33:00,30.0,27.0,30.11,WNW,295,0.0,0.0,88,0.00,,,0.00,,2013-01-21 08:33:00,
2013-01-21 03:42:00,30.0,27.0,30.11,WNW,295,0.0,0.0,88,0.00,,,0.00,,2013-01-21 08:42:00,
2013-01-21 03:53:00,30.0,27.0,30.11,WNW,295,0.0,0.0,88,0.00,,,0.00,,2013-01-21 08:53:00,
2013-01-21 04:03:00,30.0,27.0,30.11,WNW,295,0.0,0.0,88,0.00,,,0.00,,2013-01-21 09:03:00,
2013-01-21 04:12:00,30.0,27.0,30.11,WNW,295,0.0,0.0,88,0.00,,,0.00,,2013-01-21 09:12:00,
2013-01-21 04:23:00,30.0,27.0,30.11,WNW,295,0.0,0.0,88,0.00,,,0.00,,2013-01-21 09:23:00,
2013-01-21 04:33:00,30.0,27.0,30.10,WNW,295,0.0,0.0,89,0.00,,,0.00,,2013-01-21 09:33:00,
2013-01-21 04:42:00,30.0,27.0,30.10,WNW,295,0.0,0.0,89,0.00,,,0.00,,2013-01-21 09:42:00,
2013-01-21 04:53:00,30.0,27.0,30.10,WNW,295,0.0,0.0,89,0.00,,,0.00,,2013-01-21 09:53:00,
2013-01-21 05:02:00,29.0,26.0,30.09,WNW,295,0.0,0.0,89,0.00,,,0.00,,2013-01-21 10:02:00,
2013-01-21 05:12:00,29.0,26.0,30.09,WNW,295,0.0,0.0,89,0.00,,,0.00,,2013-01-21 10:12:00,
2013-01-21 05:22:00,29.0,26.0,30.09,WNW,295,0.0,0.0,89,0.00,,,0.00,,2013-01-21 10:22:00,
2013-01-21 05:32:00,29.0,26.0,30.09,WNW,295,0.0,0.0,89,0.00,,,0.00,,2013-01-21 10:32:00,
2013-01-21 05:43:00,29.0,26.0,30.09,WNW,295,0.0,0.0,89,0.00,,,0.00,,2013-01-21 10:43:00,
2013-01-21 05:53:00,29.0,26.0,30.09,WNW,295,0.0,0.0,89,0.00,,,0.00,,2013-01-21 10:53:00,
2013-01-21 06:03:00,29.0,26.0,30.09,WNW,295,0.0,0.0,89,0.00,,,0.00,,2013-01-21 11:03:00,
2013-01-21 06:13:00,29.0,26.0,30.09,WNW,295,0.0,0.0,89,0.00,,,0.00,,2013-01-21 11:13:00,
2013-01-21 06:23:00,28.0,25.0,30.09,WNW,295,0.0,0.0,89,0.00,,,0.00,,2013-01-21 11:23:00,
2013-01-21 06:33:00,28.0,25.0,30.09,WNW,295,0.0,0.0,89,0.00,,,0.00,,2013-01-21 11:33:00,
2013-01-21 06:43:00,28.0,25.0,30.09,WNW,295,0.0,0.0,89,0.00,,,0.00,,2013-01-21 11:43:00,
2013-01-21 06:53:00,28.0,25.0,30.09,WNW,295,0.0,0.0,90,0.00,,,0.00,,2013-01-21 11:53:00,
2013-01-21 07:02:00,28.0,25.0,30.10,WNW,295,0.0,0.0,90,0.00,,,0.00,,2013-01-21 12:02:00,
2013-01-21 07:12:00,28.0,25.0,30.10,WNW,295,0.0,0.0,90,0.00,,,0.00,,2013-01-21 12:12:00,
2013-01-21 07:22:00,28.0,25.0,30.10,WNW,295,0.0,0.0,90,0.00,,,0.00,,2013-01-21 12:22:00,
2013-01-21 07:33:00,28.0,25.0,30.11,WNW,295,0.0,0.0,90,0.00,,,0.00,,2013-01-21 12:33:00,
2013-01-21 07:42:00,28.0,25.0,30.11,WNW,295,0.0,0.0,90,0.00,,,0.00,,2013-01-21 12:42:00,
2013-01-21 07:53:00,28.0,25.0,30.11,WNW,295,0.0,0.0,90,0.00,,,0.00,,2013-01-21 12:53:00,
2013-01-21 08:03:00,28.0,25.0,30.11,WNW,295,0.0,0.0,90,0.00,,,0.00,,2013-01-21 13:03:00,
2013-01-21 08:13:00,28.0,25.0,30.11,WNW,295,0.0,0.0,90,0.00,,,0.00,,2013-01-21 13:13:00,
2013-01-21 08:23:00,27.0,25.0,30.12,WNW,295,0.0,0.0,91,0.00,,,0.00,,2013-01-21 13:23:00,
2013-01-21 08:33:00,27.0,25.0,30.13,WNW,295,0.0,0.0,91,0.00,,,0.00,,2013-01-21 13:33:00,
2013-01-21 08:43:00,27.0,25.0,30.13,WNW,295,0.0,0.0,91,0.00,,,0.00,,2013-01-21 13:43:00,
2013-01-21 08:54:00,27.0,25.0,30.13,WNW,295,0.0,0.0,91,0.00,,,0.00,,2013-01-21 13:54:00,
2013-01-21 09:03:00,28.0,26.0,30.14,WNW,295,0.0,0.0,92,0.00,,,0.00,,2013-01-21 14:03:00,
2013-01-21 09:12:00,28.0,26.0,30.14,WNW,295,0.0,0.0,92,0.00,,,0.00,,2013-01-21 14:12:00,
2013-01-21 09:23:00,28.0,26.0,30.15,WNW,295,0.0,0.0,93,0.00,,,0.00,,2013-01-21 14:23:00,
2013-01-21 09:32:00,29.0,27.0,30.16,WNW,295,0.0,0.0,93,0.00,,,0.00,,2013-01-21 14:32:00,
2013-01-21 09:43:00,29.0,27.0,30.16,WNW,295,0.0,0.0,93,0.00,,,0.00,,2013-01-21 14:43:00,
2013-01-21 09:53:00,29.0,27.0,30.17,WNW,295,0.0,0.0,94,0.00,,,0.00,,2013-01-21 14:53:00,
2013-01-21 10:03:00,30.0,29.0,30.16,WNW,295,0.0,0.0,95,0.00,,,0.00,,2013-01-21 15:03:00,
2013-01-21 10:13:00,30.0,29.0,30.16,WNW,295,0.0,0.0,95,0.00,,,0.00,,2013-01-21 15:13:00,
2013-01-21 10:23:00,33.0,32.0,30.17,WNW,295,0.0,0.0,95,0.00,,,0.00,,2013-01-21 15:23:00,
2013-01-21 10:33:00,35.0,33.0,30.17,WNW,295,0.0,1.0,94,0.00,,,0.00,,2013-01-21 15:33:00,
2013-01-21 10:43:00,35.0,33.0,30.17,WNW,295,0.0,1.0,94,0.00,,,0.00,,2013-01-21 15:43:00,
2013-01-21 10:53:00,38.0,30.0,30.19,NW,309,2.0,5.0,72,0.00,,,0.00,,2013-01-21 15:53:00,
2013-01-21 11:03:00,39.0,27.0,30.19,NW,308,4.0,10.0,61,0.00,,,0.00,,2013-01-21 16:03:00,
2013-01-21 11:12:00,39.0,27.0,30.19,NW,308,4.0,10.0,61,0.00,,,0.00,,2013-01-21 16:12:00,
2013-01-21 11:23:00,40.0,26.0,30.19,WNW,293,2.0,8.0,58,0.00,,,0.00,,2013-01-21 16:23:00,
2013-01-21 11:33:00,41.0,25.0,30.19,NNW,331,2.0,6.0,52,0.00,,,0.00,,2013-01-21 16:33:00,
2013-01-21 11:43:00,41.0,25.0,30.19,NNW,331,2.0,6.0,52,0.00,,,0.00,,2013-01-21 16:43:00,
2013-01-21 11:53:00,42.0,24.0,30.18,NNW,329,1.0,5.0,49,0.00,,,0.00,,2013-01-21 16:53:00,
2013-01-21 12:03:00,42.0,23.0,30.18,NW,310,3.0,7.0,47,0.00,,,0.00,,2013-01-21 17:03:00,
2013-01-21 12:12:00,42.0,23.0,30.18,NW,310,3.0,7.0,47,0.00,,,0.00,,2013-01-21 17:12:00,
2013-01-21 12:23:00,43.0,22.0,30.17,NW,307,3.0,5.0,42,0.00,,,0.00,,2013-01-21 17:23:00,
2013-01-21 12:33:00,44.0,21.0,30.16,NW,321,1.0,8.0,40,0.00,,,0.00,,2013-01-21 17:33:00,
2013-01-21 12:43:00,44.0,21.0,30.16,NW,321,1.0,8.0,40,0.00,,,0.00,,2013-01-21 17:43:00,
2013-01-21 12:53:00,44.0,19.0,30.16,WNW,296,5.0,11.0,37,0.00,,,0.00,,2013-01-21 17:53:00,
2013-01-21 13:03:00,45.0,20.0,30.15,NW,319,5.0,8.0,37,0.00,,,0.00,,2013-01-21 18:03:00,
2013-01-21 13:12:00,45.0,20.0,30.15,NW,319,5.0,8.0,37,0.00,,,0.00,,2013-01-21 18:12:00,
2013-01-21 13:23:00,45.0,20.0,30.14,NW,313,3.0,11.0,37,0.00,,,0.00,,2013-01-21 18:23:00,
2013-01-21 13:33:00,46.0,19.0,30.14,NW,304,5.0,8.0,33,0.00,,,0.00,,2013-01-21 18:33:00,
2013-01-21 13:43:00,46.0,19.0,30.14,NW,304,5.0,8.0,33,0.00,,,0.00,,2013-01-21 18:43:00,
2013-01-21 13:53:00,46.0,20.0,30.14,WNW,297,3.0,10.0,35,0.00,,,0.00,,2013-01-21 18:53:00,
2013-01-21 14:03:00,46.0,19.0,30.14,NNW,332,1.0,8.0,33,0.00,,,0.00,,2013-01-21 19:03:00,
2013-01-21 14:12:00,46.0,19.0,30.13,NW,306,3.0,6.0,33,0.00,,,0.00,,2013-01-21 19:12:00,
2013-01-21 14:22:00,46.0,19.0,30.13,NW,306,3.0,6.0,33,0.00,,,0.00,,2013-01-21 19:22:00,
2013-01-21 14:33:00,47.0,21.0,30.13,NW,323,2.0,5.0,36,0.00,,,0.00,,2013-01-21 19:33:00,
2013-01-21 14:43:00,47.0,21.0,30.13,NW,323,2.0,5.0,36,0.00,,,0.00,,2013-01-21 19:43:00,
2013-01-21 14:53:00,47.0,18.0,30.13,NW,317,3.0,6.0,31,0.00,,,0.00,,2013-01-21 19:53:00,
2013-01-21 15:03:00,47.0,19.0,30.13,NW,311,4.0,9.0,32,0.00,,,0.00,,2013-01-21 20:03:00,
2013-01-21 15:12:00,47.0,19.0,30.13,NW,311,4.0,9.0,32,0.00,,,0.00,,2013-01-21 20:12:00,
2013-01-21 15:23:00,46.0,20.0,30.13,West,276,5.0,12.0,35,0.00,,,0.00,,2013-01-21 20:23:00,
2013-01-21 15:33:00,47.0,19.0,30.13,NNW,328,4.0,7.0,32,0.00,,,0.00,,2013-01-21 20:33:00,
2013-01-21 15:43:00,47.0,19.0,30.13,NNW,328,4.0,7.0,32,0.00,,,0.00,,2013-01-21 20:43:00,
2013-01-21 15:53:00,47.0,19.0,30.13,NW,321,2.0,7.0,33,0.00,,,0.00,,2013-01-21 20:53:00,
2013-01-21 16:04:00,46.0,16.0,30.13,SW,233,1.0,5.0,30,0.00,,,0.00,,2013-01-21 21:04:00,
2013-01-21 16:12:00,46.0,16.0,30.13,SW,233,1.0,5.0,30,0.00,,,0.00,,2013-01-21 21:12:00,
2013-01-21 16:23:00,46.0,17.0,30.13,NNW,331,2.0,8.0,31,0.00,,,0.00,,2013-01-21 21:23:00,
2013-01-21 16:33:00,46.0,16.0,30.14,NW,320,1.0,9.0,30,0.00,,,0.00,,2013-01-21 21:33:00,
2013-01-21 16:43:00,46.0,16.0,30.14,NW,320,1.0,9.0,30,0.00,,,0.00,,2013-01-21 21:43:00,
2013-01-21 16:54:00,46.0,17.0,30.14,NW,306,3.0,5.0,31,0.00,,,0.00,,2013-01-21 21:54:00,
2013-01-21 17:03:00,45.0,17.0,30.14,WNW,300,3.0,6.0,32,0.00,,,0.00,,2013-01-21 22:03:00,
2013-01-21 17:13:00,45.0,17.0,30.14,WNW,300,3.0,6.0,32,0.00,,,0.00,,2013-01-21 22:13:00,
2013-01-21 17:23:00,45.0,16.0,30.14,NW,308,3.0,4.0,31,0.00,,,0.00,,2013-01-21 22:23:00,
2013-01-21 17:33:00,44.0,17.0,30.14,NW,304,1.0,2.0,33,0.00,,,0.00,,2013-01-21 22:33:00,
2013-01-21 17:43:00,44.0,17.0,30.14,NW,304,1.0,2.0,33,0.00,,,0.00,,2013-01-21 22:43:00,
2013-01-21 17:53:00,43.0,19.0,30.14,NW,304,0.0,3.0,37,0.00,,,0.00,,2013-01-21 22:53:00,
2013-01-21 18:03:00,42.0,21.0,30.14,NW,304,0.0,1.0,42,0.00,,,0.00,,2013-01-21 23:03:00,
2013-01-21 18:13:00,42.0,21.0,30.14,NW,304,0.0,1.0,42,0.00,,,0.00,,2013-01-21 23:13:00,
2013-01-21 18:23:00,40.0,21.0,30.14,NW,304,0.0,0.0,47,0.00,,,0.00,,2013-01-21 23:23:00,
2013-01-21 18:33:00,38.0,20.0,30.16,NW,304,0.0,1.0,47,0.00,,,0.00,,2013-01-21 23:33:00,
2013-01-21 18:42:00,38.0,20.0,30.16,NW,304,0.0,1.0,47,0.00,,,0.00,,2013-01-21 23:42:00,
2013-01-21 18:53:00,37.0,21.0,30.16,NW,304,0.0,0.0,51,0.00,,,0.00,,2013-01-21 23:53:00,
2013-01-21 19:03:00,37.0,20.0,30.17,WNW,302,2.0,5.0,50,0.00,,,0.00,,2013-01-22 00:03:00,
2013-01-21 19:12:00,37.0,20.0,30.17,WNW,302,2.0,5.0,50,0.00,,,0.00,,2013-01-22 00:12:00,
2013-01-21 19:22:00,38.0,19.0,30.17,WNW,300,0.0,5.0,45,0.00,,,0.00,,2013-01-22 00:22:00,
2013-01-21 19:33:00,38.0,18.0,30.17,NW,304,1.0,5.0,43,0.00,,,0.00,,2013-01-22 00:33:00,
2013-01-21 19:43:00,38.0,18.0,30.17,NW,304,1.0,5.0,43,0.00,,,0.00,,2013-01-22 00:43:00,
2013-01-21 19:53:00,37.0,18.0,30.18,WNW,302,0.0,1.0,46,0.00,,,0.00,,2013-01-22 00:53:00,
2013-01-21 20:02:00,36.0,18.0,30.17,WNW,302,0.0,2.0,47,0.00,,,0.00,,2013-01-22 01:02:00,
2013-01-21 20:12:00,36.0,18.0,30.17,WNW,302,0.0,2.0,47,0.00,,,0.00,,2013-01-22 01:12:00,
2013-01-21 20:23:00,36.0,19.0,30.18,WNW,302,0.0,3.0,49,0.00,,,0.00,,2013-01-22 01:23:00,
2013-01-21 20:33:00,36.0,17.0,30.19,NW,319,0.0,2.0,46,0.00,,,0.00,,2013-01-22 01:33:00,
2013-01-21 20:43:00,36.0,17.0,30.19,NW,319,0.0,2.0,46,0.00,,,0.00,,2013-01-22 01:43:00,
2013-01-21 20:53:00,36.0,18.0,30.19,NW,311,0.0,3.0,47,0.00,,,0.00,,2013-01-22 01:53:00,
2013-01-21 21:02:00,34.0,17.0,30.19,NW,319,0.0,2.0,50,0.00,,,0.00,,2013-01-22 02:02:00,
2013-01-21 21:12:00,34.0,17.0,30.19,NW,319,0.0,2.0,50,0.00,,,0.00,,2013-01-22 02:12:00,
2013-01-21 21:22:00,34.0,18.0,30.19,NW,319,0.0,1.0,51,0.00,,,0.00,,2013-01-22 02:22:00,
2013-01-21 21:32:00,34.0,17.0,30.19,NW,319,0.0,1.0,49,0.00,,,0.00,,2013-01-22 02:32:00,
2013-01-21 21:43:00,34.0,17.0,30.19,NW,319,0.0,1.0,49,0.00,,,0.00,,2013-01-22 02:43:00,
2013-01-21 21:53:00,33.0,17.0,30.20,NW,319,0.0,1.0,52,0.00,,,0.00,,2013-01-22 02:53:00,
2013-01-21 22:03:00,33.0,18.0,30.20,NW,319,0.0,1.0,53,0.00,,,0.00,,2013-01-22 03:03:00,
2013-01-21 22:12:00,33.0,18.0,30.20,NW,319,0.0,1.0,53,0.00,,,0.00,,2013-01-22 03:12:00,
2013-01-21 22:22:00,32.0,17.0,30.21,NW,319,0.0,0.0,54,0.00,,,0.00,,2013-01-22 03:22:00,
2013-01-21 22:32:00,31.0,18.0,30.21,NW,319,0.0,1.0,57,0.00,,,0.00,,2013-01-22 03:32:00,
2013-01-21 22:42:00,31.0,18.0,30.21,NW,319,0.0,1.0,57,0.00,,,0.00,,2013-01-22 03:42:00,
2013-01-21 22:53:00,32.0,17.0,30.22,WNW,299,1.0,6.0,53,0.00,,,0.00,,2013-01-22 03:53:00,
2013-01-21 23:03:00,32.0,16.0,30.22,WNW,297,2.0,4.0,51,0.00,,,0.00,,2013-01-22 04:03:00,
2013-01-21 23:12:00,32.0,16.0,30.22,WNW,297,2.0,4.0,51,0.00,,,0.00,,2013-01-22 04:12:00,
2013-01-21 23:22:00,32.0,15.0,30.22,WNW,301,2.0,7.0,50,0.00,,,0.00,,2013-01-22 04:22:00,
2013-01-21 23:33:00,31.0,15.0,30.22,WNW,302,0.0,3.0,52,0.00,,,0.00,,2013-01-22 04:33:00,
2013-01-21 23:42:00,31.0,15.0,30.22,WNW,302,0.0,3.0,52,0.00,,,0.00,,2013-01-22 04:42:00,
2013-01-21 23:53:00,30.0,17.0,30.23,WNW,302,0.0,1.0,58,0.00,,,0.00,,2013-01-22 04:53:00,